Vertical_Velocity
-1 -1 -2 -6 -2 0 1 5 -8 1 22 4 3 6 -3 11 3 0 1 0 -1 -2 0 0 1 2 -0 -0 3 2 -1 1 1 0 2 4 7 -2 4 -1 3 -2 3
-5 -6 -6 1 2 1 11 -9 -3 -9 -14 31 7 -3 1 8 2 1 1 1 -4 -0 1 1 1 -0 -3 1 1 -0 -1 -1 7 -3 3 6 5 3 2 -2 -1 3 0
-3 -2 -6 5 4 1 -3 -7 15 6 -14 -6 1 1 21 24 10 8 7 4 4 0 0 2 2 0 -0 11 3 -2 -4 5 -11 -0 -5 3 -4 2 5 0 0 1 -3
0 -1 2 -1 2 -2 -4 3 -9 9 -3 -2 -18 -12 -7 -0 12 6 5 0 20 10 8 11 3 6 7 6 8 16 3 9 -3 7 -5 -16 7 10 1 5 1 2 -5
-1 -8 -0 11 3 -14 -4 -5 -7 3 -1 -0 -4 8 7 5 -1 5 6 6 -0 2 1 6 3 -3 7 8 -1 5 2 -4 5 2 -5 2 20 -18 -7 -6 -3 -1 0
-3 1 6 -26 -7 -2 16 -1 0 25 3 -7 4 7 13 6 -3 -2 3 -10 1 21 19 -3 7 -19 16 -9 -2 6 -11 -4 4 -2 4 7 -9 -5 0 1 1 2 1
13 3 2 -6 8 1 7 15 9 23 -5 5 5 -3 -10 -4 -7 -11 -17 -12 -1 9 8 11 -13 -15 -10 -10 0 -3 4 -10 -1 12 -3 10 -4 6 6 3 1 0 1
7 1 2 6 8 7 0 -6 -2 -2 -2 10 2 -3 -12 -12 -6 -3 1 1 -2 -3 -1 -17 6 -5 -3 1 5 7 1 -3 -5 8 3 -0 8 0 1 -0 2 4 -0
1 3 2 2 -1 -5 -4 -2 -1 1 -1 2 9 -10 -5 5 -2 -4 -9 -13 -14 -3 -0 -7 -12 -9 1 3 -2 4 4 14 -4 6 5 0 5 -1 1 -2 -0 6 0
-0 -1 4 2 -2 7 1 -2 2 3 4 -0 -8 -3 -6 -5 -6 -7 -4 1 3 -2 2 -1 2 7 -1 -2 0 10 -2 3 -10 3 -10 -3 -2 -1 -1 -4 2 5 1
1 3 5 3 -1 5 -0 0 1 1 -0 5 4 -2 -5 -0 1 4 -5 -4 0 1 8 -3 10 4 4 5 -2 4 3 2 -1 -4 4 -1 4 -0 -6 -5 -4 -3 4
6 6 3 5 3 2 1 5 9 6 2 1 -0 4 6 8 4 3 4 7 3 2 1 6 3 1 -1 -1 -3 2 2 11 -1 -1 -1 -3 -1 -1 4 3 -2 2 -4
2 6 3 2 -3 -3 -2 1 -1 -2 -0 1 -2 3 6 2 5 3 1 -3 -2 -3 -1 -3 -2 -1 -2 -2 2 0 1 -5 -1 -1 -0 -1 -1 2 -2 0 3 1 -1
6 3 4 4 0 -1 -4 -2 1 -2 -4 -1 -1 -4 -3 -3 2 -4 -6 7 5 2 3 4 4 -6 -10 -7 -2 4 -2 4 3 8 -2 5 2 -1 1 5 -1 6 4
-0 0 1 -3 6 5 -0 1 2 -1 -4 1 -4 -3 4 6 4 0 7 4 -4 1 6 3 -3 5 5 0 -9 -2 4 5 5 -1 2 -1 3 3 -2 -3 3 7 3
-0 -4 7 -14 -4 4 -7 4 2 2 -5 0 -2 -3 -4 -12 -6 1 6 2 1 -2 2 2 1 0 -5 2 6 6 -9 -2 4 2 -2 -2 -2 -0 0 3 1 1 2
0 -3 -3 3 -1 -7 8 -15 2 6 -1 -9 -9 -4 -2 -3 -1 -3 -6 -2 0 2 -2 -0 1 3 3 4 3 7 3 -3 5 8 5 -0 1 -3 -4 -1 2 -1 -1
8 12 13 12 3 0 -4 -8 -12 -5 -8 -7 -4 -0 2 1 -1 -2 3 2 4 4 0 1 0 -5 2 3 11 7 9 10 -23 -10 7 1 -4 -3 0 -1 -0 -0 -5
-0 -1 -6 -5 3 9 12 18 23 23 11 2 3 -3 -1 0 -1 -2 -5 -3 -7 -7 2 3 1 2 -3 -3 4 10 12 7 3 12 23 -4 -4 -6 -5 -4 -3 -4 -3
-4 -9 -3 -5 -8 -6 -6 -7 -12 -16 -14 -4 5 10 8 8 3 1 -6 -3 -8 2 -1 -4 -1 8 9 -2 2 9 9 9 -3 6 11 1 3 1 -5 -2 -3 -1 -3
-6 -3 -4 -12 -4 -2 -3 -13 -8 -7 -5 -11 -16 -13 -2 1 2 4 5 4 -4 -10 -5 -5 -3 -1 -1 5 10 -4 -3 5 6 3 -1 -4 3 6 -2 3 -2 -3 -2
2 4 2 1 -7 -9 -4 -1 -5 -9 -12 -11 -9 -5 -2 -6 -13 -8 3 10 9 0 1 -3 -9 -6 0 2 2 10 -6 0 -2 -1 5 5 5 3 1 -1 1 0 -4
-0 1 2 0 -3 -3 -0 -3 -4 -4 -3 0 -2 -5 -6 -7 -5 -5 -4 -5 -1 2 7 -4 -4 -6 -7 -2 -2 7 14 -5 -4 2 4 10 3 3 9 2 6 2 0
2 1 2 2 1 4 -0 -0 1 4 3 2 1 -2 -3 -3 -5 -4 -4 2 3 4 2 1 3 -0 -11 -3 -1 -2 11 17 2 0 4 6 4 8 4 1 4 -2 0
4 6 4 4 5 3 3 5 5 3 4 5 3 -1 -2 0 -4 -0 -1 -4 1 8 4 -3 2 2 -6 -14 -4 3 -1 -4 -7 7 6 2 -0 -6 3 -1 -1 1 1
-0 0 2 2 1 1 2 1 1 1 -2 -1 -1 1 -0 -0 1 -0 -14 7 1 -3 13 8 14 0 3 -2 -1 -1 3 12 16 9 -1 3 -0 -2 3 -2 -0 1 -4
Height
1456 1456 1455 1457 1458 1458 1459 1457 1455 1453 1450 1452 1463 1472 1483 1490 1495 1500 1504 1508 1512 1516 1519 1522 1527 1529 1532 1534 1537 1538 1542 1543 1546 1548 1551 1552 1552 1553 1552 1552 1552 1552 1552
1452 1452 1452 1453 1452 1454 1453 1456 1453 1455 1449 1448 1461 1469 1477 1486 1490 1496 1500 1505 1509 1513 1515 1519 1523 1525 1528 1531 1534 1535 1537 1540 1542 1544 1546 1548 1549 1547 1547 1548 1549 1548 1548
1449 1449 1450 1449 1449 1450 1448 1453 1451 1446 1452 1452 1459 1469 1479 1486 1489 1494 1496 1502 1506 1509 1512 1515 1518 1521 1525 1525 1527 1530 1532 1536 1537 1539 1542 1544 1542 1542 1542 1543 1545 1544 1544
1446 1447 1448 1448 1446 1445 1444 1449 1451 1449 1452 1454 1462 1472 1478 1484 1488 1490 1495 1499 1502 1505 1507 1511 1514 1518 1521 1523 1525 1527 1528 1531 1533 1533 1535 1538 1539 1538 1538 1539 1539 1540 1541
1444 1445 1448 1446 1440 1442 1443 1444 1448 1450 1450 1459 1466 1474 1478 1483 1484 1491 1493 1498 1501 1503 1505 1507 1511 1514 1518 1520 1521 1522 1525 1527 1528 1526 1528 1529 1529 1533 1533 1534 1535 1536 1536
1444 1445 1445 1442 1448 1446 1440 1439 1444 1446 1451 1460 1467 1469 1473 1477 1480 1487 1491 1492 1499 1500 1500 1504 1506 1510 1512 1516 1518 1519 1519 1523 1522 1522 1522 1522 1525 1524 1525 1530 1531 1533 1533
1438 1443 1445 1447 1449 1446 1441 1436 1442 1445 1453 1458 1461 1465 1469 1475 1481 1484 1488 1493 1494 1496 1498 1497 1502 1506 1509 1511 1513 1513 1513 1516 1516 1518 1517 1519 1518 1519 1522 1526 1528 1527 1528
1443 1445 1447 1447 1447 1446 1445 1448 1448 1450 1456 1459 1460 1463 1470 1474 1476 1479 1483 1486 1488 1490 1492 1495 1496 1499 1501 1502 1504 1505 1505 1507 1509 1509 1512 1513 1513 1515 1517 1518 1522 1522 1524
1445 1448 1451 1453 1453 1453 1454 1455 1455 1456 1458 1458 1458 1464 1468 1471 1473 1477 1480 1481 1484 1486 1485 1488 1490 1491 1494 1494 1494 1493 1495 1496 1501 1502 1504 1505 1508 1510 1512 1514 1517 1518 1520
1454 1457 1456 1454 1455 1453 1453 1452 1455 1457 1456 1458 1464 1466 1469 1471 1472 1474 1475 1475 1477 1479 1478 1478 1479 1480 1482 1483 1484 1484 1485 1488 1492 1494 1496 1499 1501 1505 1507 1509 1512 1513 1513
1462 1462 1459 1458 1457 1454 1454 1456 1457 1457 1458 1459 1461 1462 1466 1469 1468 1468 1469 1471 1471 1472 1472 1472 1472 1472 1474 1475 1475 1477 1478 1481 1483 1486 1489 1493 1495 1496 1498 1503 1505 1508 1509
1464 1462 1462 1462 1460 1461 1461 1460 1459 1457 1457 1457 1458 1461 1465 1467 1467 1466 1466 1466 1466 1466 1465 1464 1464 1465 1465 1467 1468 1469 1471 1473 1476 1479 1484 1488 1489 1491 1494 1495 1498 1498 1500
1467 1466 1464 1461 1463 1463 1463 1458 1455 1455 1459 1460 1460 1463 1464 1462 1461 1461 1460 1460 1461 1460 1459 1458 1458 1457 1458 1461 1464 1466 1465 1468 1470 1475 1477 1481 1484 1485 1487 1493 1493 1492 1493
1467 1468 1469 1467 1468 1467 1461 1460 1461 1460 1462 1462 1461 1463 1460 1458 1456 1455 1456 1456 1454 1453 1451 1450 1449 1449 1451 1454 1458 1461 1461 1462 1466 1468 1471 1474 1475 1479 1484 1485 1487 1489 1487
1467 1467 1466 1469 1466 1462 1462 1460 1461 1460 1461 1459 1457 1456 1455 1454 1453 1451 1451 1446 1445 1447 1446 1442 1443 1444 1444 1445 1448 1451 1455 1457 1459 1463 1464 1469 1473 1475 1476 1480 1483 1484 1482
1473 1472 1463 1461 1463 1458 1457 1454 1456 1456 1455 1452 1452 1452 1448 1448 1447 1445 1443 1440 1439 1439 1438 1436 1436 1437 1438 1441 1441 1441 1446 1452 1452 1455 1457 1462 1464 1469 1470 1473 1474 1477 1480
1475 1472 1472 1471 1462 1460 1458 1456 1460 1453 1450 1447 1448 1445 1441 1440 1440 1439 1438 1436 1433 1431 1432 1429 1431 1429 1431 1433 1434 1435 1436 1440 1444 1450 1451 1453 1456 1460 1464 1465 1467 1470 1471
1471 1468 1469 1466 1465 1463 1458 1455 1454 1451 1447 1443 1443 1438 1436 1434 1435 1431 1429 1427 1425 1422 1421 1422 1422 1422 1423 1426 1429 1428 1429 1431 1434 1442 1444 1446 1449 1454 1456 1458 1460 1462 1464
1467 1466 1467 1465 1464 1460 1457 1454 1451 1447 1442 1439 1435 1432 1429 1426 1423 1419 1420 1416 1413 1415 1414 1413 1414 1413 1414 1416 1421 1421 1421 1422 1428 1432 1435 1437 1441 1446 1448 1452 1453 1455 1457
1471 1470 1469 1466 1465 1462 1458 1452 1447 1442 1437 1433 1429 1427 1425 1421 1417 1412 1411 1407 1408 1405 1402 1400 1403 1406 1404 1405 1412 1413 1415 1415 1419 1424 1425 1430 1434 1434 1436 1442 1447 1447 1451
1471 1471 1469 1467 1462 1457 1451 1447 1447 1441 1438 1433 1430 1426 1423 1412 1407 1403 1398 1395 1391 1390 1390 1390 1393 1391 1395 1397 1403 1404 1407 1410 1414 1414 1417 1420 1427 1425 1431 1433 1437 1440 1445
1470 1469 1464 1459 1455 1453 1450 1447 1442 1438 1435 1433 1428 1421 1413 1405 1401 1395 1390 1387 1382 1381 1382 1380 1384 1385 1388 1389 1393 1394 1398 1402 1408 1409 1412 1415 1418 1423 1424 1427 1431 1432 1437
1465 1462 1459 1456 1452 1448 1445 1441 1438 1435 1430 1426 1420 1414 1407 1401 1397 1390 1385 1379 1375 1372 1370 1371 1372 1373 1379 1378 1382 1385 1387 1392 1398 1403 1406 1409 1412 1415 1421 1421 1425 1427 1430
1458 1456 1453 1450 1447 1445 1441 1437 1434 1429 1424 1419 1413 1407 1400 1395 1390 1386 1380 1373 1369 1366 1364 1364 1363 1365 1369 1371 1372 1377 1380 1382 1386 1393 1400 1403 1404 1409 1414 1418 1420 1421 1427
1453 1450 1447 1443 1439 1436 1433 1430 1426 1419 1414 1409 1404 1398 1393 1387 1381 1376 1371 1365 1360 1358 1356 1355 1356 1357 1359 1358 1362 1367 1369 1372 1375 1383 1389 1393 1394 1401 1406 1409 1413 1418 1422
1446 1443 1440 1437 1433 1429 1427 1423 1418 1413 1407 1401 1395 1391 1385 1379 1373 1366 1357 1354 1349 1346 1346 1345 1346 1347 1348 1351 1353 1357 1361 1365 1368 1367 1376 1380 1384 1391 1396 1399 1405 1410 1416